Location: Bottenau
(48.5138°N, 8.0462°E)
Time: 19:31:23
(UTC+00:00)

ERS-1 Rocket - Pass Details

Date: 18 April 2021
Orbit: 753 x 757 km, 98.4° (Epoch: 18 May)

Event Time Altitude Azimuth Distance (km) Brightness Sun altitude
Exits shadow 20:54:40 50° 151° (SSE) 959 3.1 -21.5°
Maximum altitude 20:55:59 80° 74° (ENE) 772 2.9 -21.7°
Drops below altitude 10° 21:01:02 10° 348° (NNW) 2,290 6.3 -22.2°
Sets 21:03:20 0° 347° (NNW) 3,219 7.3 -22.4°
